Regional Weather Roundup
Issued by NWS

Home | Current Version | Previous Version | Graphics & Text | Print | Product List | Glossary On
Versions: 1 2 3 4 5 6 7 8 9 10 11 12 13 14 15 16 17 18 19 20 21 22 23 24 25 26 27 28 29 30 31 32 33 34 35 36 37 38 39 40 41 42 43 44 45 46 47 48 49 50
416
ASUS44 KLIX 181505
RWRLA
LOUISIANA WEATHER ROUNDUP
NATIONAL WEATHER SERVICE NEW ORLEANS LA
1000 AM CDT FRI APR 18 2014

NOTE: "FAIR" INDICATES FEW OR NO CLOUDS BELOW 12,000 FEET WITH NO
      SIGNIFICANT WEATHER AND/OR OBSTRUCTIONS TO VISIBILITY.
      SKY/WX - SKY CONDITION AND SIGNIFICANT WEATHER.
      TMP - AIR TEMPERATURE.    DP   - DEWPOINT TEMPERATURE.
      RH  - RELATIVE HUMIDITY.  PRES - PRESSURE.
      HX  - HEAT INDEX.         WCI  - WIND CHILL INDEX.

*  THESE STATIONS ARE NOT NWS OR FAA STATIONS AND ARE NOT UNDER
   NWS QUALITY CONTROL.

LAZ040-048-061>063-065-066-069-181600-
SOUTHEAST LOUISIANA

CITY           SKY/WX    TMP DP  RH WIND       PRES   REMARKS
N.O. AUDUBON   NOT AVBL
N.O. INTL ARPT PTSUNNY   66  60  81 N12       30.11R
N.O. LAKEFRONT CLOUDY    65  61  87 N10       30.10S
N.O. DOWNTOWN* CLOUDY    64  57  77 N6        30.10S
SLIDELL        CLOUDY    64  60  87 N9        30.10R
BATON ROUGE    MOSUNNY   69  58  67 NE7       30.13S
BOOTHVILLE     LGT RAIN  62  60  93 N10G20    30.07S FOG
BELLE CHASSE   CLOUDY    65  59  81 NE13G18   30.08S
BOGALUSA*        N/A     65  59  78 NE9       30.13R
GALLIANO*      CLOUDY    66  61  85 N14       30.09S
NEW ROADS*     NOT AVBL
GONZALES*      CLOUDY    67  60  78 N6        30.12R
HAMMOND*       NOT AVBL
HOUMA*         PTSUNNY   66  59  77 N14       30.10R FOG
PORT FOURCHON* PTSUNNY   64  61  88 N16G22    30.10S

$$

LAZ041-044-053-054-181600-
SOUTHWEST LOUISIANA

CITY           SKY/WX    TMP DP  RH WIND       PRES   REMARKS
LAKE CHARLES   PTSUNNY   64  56  75 NE7       30.16S
LAFAYETTE      PTSUNNY   65  58  78 N9        30.14R
PATTERSON      CLOUDY    66  59  77 N9          N/A
SALT POINT       N/A     69  60  73 VRB5      30.10F
NEW IBERIA     SUNNY     69  59  70 NE7       30.13S
CHENAULT AIRPK PTSUNNY   63  55  77 N5        30.18R

$$

LAZ027-028-181600-
CENTRAL LOUISIANA

CITY           SKY/WX    TMP DP  RH WIND       PRES   REMARKS
FORT POLK      PTSUNNY   61  54  77 NE8       30.18S
ALEXANDRIA INT CLOUDY    58  55  90 NE6       30.18R THUNDER
ALEXANDRIA     LGT RAIN  62  55  77 NE6       30.18S

$$

LAZ001-002-181600-
NORTHWEST LOUISIANA

CITY           SKY/WX    TMP DP  RH WIND       PRES   REMARKS
SHREVEPORT     MOSUNNY   64  54  69 N5        30.21F
BARKSDALE AFB  MOSUNNY   64  53  69 N5        30.21F
DTN SHREVEPORT MOSUNNY   63  53  70 N7        30.22F

$$

LAZ014-016-181600-
NORTHEAST LOUISIANA

CITY           SKY/WX    TMP DP  RH WIND       PRES   REMARKS
MONROE         CLOUDY    61  54  77 SW5       30.20R
TALLULAH       CLOUDY    66  57  72 NE8       30.20F

$$




USA.gov is the U.S. government's official web portal to all federal, state and local government web resources and services.